Starlink 30483

operational
NORAD ID: 57914 Int'l Des: 2023-147 Owner: SPXS Country: US Constellation: starlink
LEOCIRCULAR

Über Starlink 30483

Beschreibung wird geladen...

Live-Position

3D-Globus wird geladen...

Nächste Überflüge

Höhenverlauf

Altitude vs Time

uPlot chart will show altitude changes over time

Zweizeiliger Elementsatz

1 57914U 23147B 25260.51053631 .00002544 00000-0 10200-3 0 9993
2 57914 43.0044 77.6491 0003047 285.6201 74.4314 15.27566625111826
Epoch: 17. Sept. 2025 • Age: 33 hours

Aktueller Status

Höhe 492.8 km
Geschwindigkeit 7.62 km/s
Subsatellitenpunkt -39.39°S, 57.15°E
Startdatum 24. Sept. 2023
Alter 1.9 years
Typ internet

Technische Details

Klassifizierung Payload
Masse 730.00 kg
Trockenmasse 700.00 kg
Gesamtmasse 730.00 kg
Länge 0.30 m
Durchmesser 4.10 m
Spannweite 29.00 m
Form Box + pan
Hersteller SPXS
Bus-Typ Starlink V2M
Phasenstatus In Orbit
Besitzer/Staat SPXS/US

Große Konstellationen

Loading constellations...